Vertical_Velocity
1 -1 -1 -2 -3 -5 -2 -1 -1 -1 -1 -2 -0 -0 -0 0 0 0 -1 0 -1 -1 0 -1 -1 -1 0 -0 -1 -2 -3 -1 1 -0 0 -1 -0 1 -1 -0 -1 -0 -1
1 2 -1 -4 -3 -0 -4 -2 -0 0 -1 -2 -1 1 -1 1 0 -1 -0 -1 -1 -1 -1 -0 -1 -1 -0 -0 2 -0 0 -2 -1 0 1 0 -1 -1 -0 -1 -1 -1 -1
1 0 -1 -2 -1 -2 -1 -2 0 1 1 -2 -2 -1 -1 -0 1 -0 -1 -1 0 -0 -0 -0 0 -1 -1 2 0 1 -2 -0 -4 -1 -1 0 -0 -2 0 -1 -1 -1 -1
-1 1 -2 -2 -2 -1 0 -3 -2 -0 -1 -0 -0 -1 -1 -0 0 1 1 -3 1 -2 -1 -1 -1 1 -2 -2 -0 -1 2 -1 -3 1 -0 1 -2 1 -3 -1 0 -0 -0
1 -1 -2 -1 -3 -1 -4 -0 -2 -1 -1 -0 0 -0 -1 3 -1 2 -0 -1 -0 -1 -0 -1 -0 -2 -1 1 -0 0 2 0 0 -2 -1 -1 0 1 -1 -2 -2 -0 0
0 -1 -1 -2 -1 -2 -1 -4 -2 -1 -1 -1 -0 -0 -3 2 -0 4 1 2 1 0 -1 1 0 1 -2 -3 1 1 2 2 1 -1 -0 1 -1 1 -1 -1 -1 -3 -0
5 1 -1 1 0 0 0 -1 -1 -1 -0 1 -3 -2 -0 0 -1 1 -0 2 -2 1 -0 -0 -1 3 2 -2 -4 2 -0 -1 1 -1 -1 -0 0 -0 -0 0 -1 -2 -0
-0 1 -2 -1 1 -1 1 -2 0 -1 1 -0 0 -2 -1 0 2 -2 2 1 -0 2 -1 1 2 -1 -1 -3 -2 -1 -0 -1 -0 -1 -2 -2 -2 -2 -1 -1 0 -2 -1
4 3 -0 0 -0 0 -1 -0 -2 -1 -1 1 -1 -2 2 -1 1 -6 2 -0 -1 2 -2 -1 4 -0 -0 -1 -1 1 1 0 0 0 -1 -1 -2 -1 -0 -1 -1 -1 0
1 2 -1 1 2 1 1 0 -0 -2 -2 1 -2 1 1 -2 4 -3 1 -2 -2 2 1 -1 1 2 1 -0 -4 -1 -1 -0 1 1 1 -0 -0 -0 1 -0 -0 0 1
2 2 2 -3 2 2 0 -1 2 -1 -1 -0 -0 2 1 1 2 -0 -2 0 -1 0 2 -1 1 1 -1 0 -2 -2 -1 -2 0 -1 -1 -0 0 1 1 0 -1 -1 -2
2 2 4 2 2 2 1 0 0 2 2 0 0 1 -1 -0 1 1 1 3 0 -1 -1 5 -4 1 1 1 -4 -2 -3 -1 -0 -2 -1 -1 -1 -1 -0 1 1 1 0
2 2 2 2 2 2 1 0 1 2 1 1 2 2 -1 1 0 -0 3 1 1 -1 -4 8 -6 -1 2 1 -2 -1 -0 -0 -0 -0 0 0 1 0 0 0 1 0 -0
1 4 1 0 3 4 0 -0 2 2 1 2 1 2 0 1 -1 -0 -1 -1 0 -1 -1 2 0 1 2 1 -1 -2 -2 -1 -1 0 -0 -1 0 2 1 -1 -1 1 1
1 3 3 1 0 3 3 -2 0 3 2 2 2 2 1 1 0 0 -1 -1 -1 2 -1 -0 0 0 2 -1 -3 -2 -1 0 0 1 -1 -1 1 2 -1 3 -0 2 2
4 5 7 1 2 2 4 1 3 1 2 5 2 2 1 2 -0 2 0 -0 -3 3 4 -2 -1 2 1 -0 -1 -1 -0 -1 -1 -0 1 -0 0 0 0 1 1 2 -1
-3 4 3 4 3 -1 1 2 4 3 4 3 2 1 1 1 -0 -1 -0 1 -1 0 0 -2 -2 1 -1 -2 -1 -2 0 -1 -0 -2 -0 -0 -0 -0 -0 0 0 -0 2
-4 -5 2 2 3 -2 2 4 3 -2 2 2 1 2 1 -0 0 -1 -1 -2 3 0 0 -3 -1 1 -0 -0 1 -3 1 -1 -2 -1 -1 0 1 0 -0 0 0 -1 0
-4 -3 -1 4 1 2 2 2 6 1 2 2 0 0 -0 3 -1 1 -1 2 -3 3 -1 -4 -2 2 0 -1 1 -1 1 1 0 -1 -1 -1 -0 1 0 1 -1 -1 -1
2 0 -1 -1 1 1 3 0 3 4 0 1 1 1 -0 0 1 2 -3 3 -3 4 -2 -5 -3 -2 -2 3 2 1 -1 1 1 -1 -0 -0 0 -1 -1 -1 -1 -2 -1
1 1 -1 -2 3 6 3 2 0 2 1 0 0 0 -1 -0 2 -1 -2 0 -1 2 -2 -1 -1 -0 -2 -1 3 3 -1 3 3 1 1 1 1 -0 -0 -2 -0 -1 -0
5 1 -1 -4 0 4 6 2 3 2 -1 -1 1 0 -0 0 -1 1 0 1 -2 -2 -3 -2 -0 -2 -2 -1 -3 -3 3 11 5 -3 -0 -2 -0 3 4 2 1 1 1
4 4 0 -2 -1 3 4 3 1 1 1 -1 2 1 0 1 1 -1 1 -1 -1 0 -2 -4 1 2 2 -4 -3 -4 -10 -4 -3 19 13 7 3 5 5 4 5 3 1
2 2 3 -0 -2 2 -1 -1 1 3 -2 0 -0 1 1 1 1 -1 0 -0 -1 -1 -2 -1 -1 -1 -1 2 1 -4 -7 -9 -13 -14 6 3 -0 4 6 6 2 3 1
2 4 5 3 1 -0 -1 2 1 -0 1 -1 1 0 -1 1 0 2 -1 -0 -0 -1 -2 -1 -3 -3 -2 -2 -3 2 6 2 -1 -9 -16 3 8 1 -1 -0 1 -1 1
-2 2 0 2 1 1 -3 1 1 0 2 -0 2 -0 -0 1 1 -2 0 -1 -2 -2 -2 -2 -2 -2 -2 -2 -3 -5 -6 -6 -2 -10 -11 -3 -10 8 1 1 2 -0 1
Height
3152 3151 3151 3151 3150 3148 3147 3145 3144 3142 3140 3138 3137 3136 3135 3135 3135 3135 3136 3137 3137 3138 3139 3140 3140 3140 3141 3142 3143 3143 3144 3144 3144 3144 3143 3144 3143 3143 3143 3142 3142 3141 3141
3151 3151 3150 3150 3149 3148 3147 3146 3144 3143 3140 3139 3137 3136 3135 3134 3135 3135 3135 3135 3136 3137 3138 3139 3139 3139 3140 3140 3141 3141 3141 3142 3142 3142 3142 3141 3141 3140 3140 3139 3139 3138 3138
3150 3150 3149 3149 3149 3148 3147 3146 3144 3142 3141 3139 3138 3137 3136 3135 3134 3134 3135 3135 3136 3136 3136 3137 3138 3138 3139 3139 3139 3139 3139 3139 3139 3139 3139 3138 3138 3137 3136 3136 3135 3135 3135
3149 3149 3149 3149 3149 3148 3148 3146 3145 3142 3140 3138 3137 3136 3135 3135 3134 3134 3134 3135 3135 3136 3135 3136 3136 3137 3137 3138 3138 3138 3138 3137 3137 3137 3136 3135 3135 3134 3133 3133 3133 3132 3132
3148 3148 3148 3149 3149 3148 3147 3146 3145 3142 3140 3139 3137 3136 3135 3134 3133 3132 3133 3133 3134 3134 3134 3135 3135 3135 3136 3136 3135 3135 3135 3134 3133 3133 3133 3132 3132 3131 3130 3129 3128 3128 3128
3147 3147 3148 3148 3148 3148 3147 3146 3144 3142 3140 3139 3137 3136 3133 3133 3132 3132 3132 3132 3133 3133 3133 3133 3133 3133 3133 3133 3133 3132 3132 3132 3131 3131 3130 3129 3128 3128 3127 3126 3125 3125 3125
3144 3146 3147 3148 3147 3147 3147 3146 3144 3143 3141 3139 3138 3135 3133 3132 3131 3131 3131 3131 3132 3131 3131 3131 3131 3131 3132 3132 3132 3131 3130 3129 3129 3128 3128 3127 3126 3125 3125 3124 3124 3123 3123
3143 3144 3146 3147 3147 3146 3146 3145 3144 3143 3141 3139 3138 3136 3134 3133 3132 3131 3131 3131 3131 3130 3131 3130 3130 3130 3130 3130 3129 3129 3128 3126 3126 3125 3124 3123 3123 3122 3122 3121 3121 3120 3119
3141 3142 3144 3145 3145 3145 3145 3144 3143 3142 3141 3139 3137 3135 3134 3134 3133 3132 3131 3131 3130 3130 3130 3130 3129 3129 3128 3127 3127 3127 3126 3124 3123 3121 3120 3119 3118 3118 3118 3118 3117 3116 3115
3138 3140 3141 3143 3144 3144 3143 3142 3142 3141 3140 3139 3137 3135 3134 3134 3132 3132 3131 3130 3131 3130 3129 3129 3128 3127 3127 3125 3124 3123 3122 3121 3120 3118 3117 3115 3114 3114 3113 3113 3112 3111 3111
3136 3137 3139 3141 3141 3141 3141 3141 3140 3140 3139 3138 3136 3135 3134 3133 3133 3131 3130 3130 3130 3129 3129 3128 3126 3125 3124 3122 3121 3120 3119 3118 3116 3114 3113 3111 3110 3109 3109 3108 3107 3106 3106
3133 3134 3136 3137 3138 3139 3139 3139 3139 3138 3137 3137 3136 3135 3133 3132 3132 3130 3129 3129 3128 3127 3127 3125 3124 3122 3121 3120 3118 3117 3116 3114 3113 3111 3109 3107 3106 3105 3104 3103 3102 3100 3100
3129 3131 3133 3133 3135 3135 3136 3136 3136 3136 3135 3134 3133 3132 3132 3131 3130 3128 3128 3127 3126 3125 3124 3123 3121 3120 3118 3117 3115 3113 3111 3110 3108 3107 3104 3103 3101 3101 3100 3098 3097 3095 3094
3124 3126 3128 3130 3131 3131 3132 3133 3133 3133 3132 3131 3131 3130 3130 3129 3129 3127 3126 3125 3124 3122 3121 3120 3119 3118 3115 3113 3111 3109 3107 3104 3103 3101 3099 3097 3096 3095 3094 3092 3091 3090 3089
3122 3123 3125 3125 3127 3128 3128 3129 3129 3129 3129 3128 3127 3127 3127 3127 3125 3124 3123 3122 3121 3119 3118 3117 3115 3114 3111 3108 3106 3103 3101 3099 3097 3096 3094 3093 3091 3090 3088 3087 3085 3085 3083
3117 3120 3121 3122 3123 3124 3125 3125 3126 3126 3125 3125 3124 3124 3124 3123 3122 3121 3120 3118 3117 3116 3115 3113 3111 3110 3107 3104 3101 3098 3096 3094 3093 3092 3090 3088 3086 3085 3083 3081 3080 3079 3076
3111 3113 3116 3117 3118 3119 3120 3121 3121 3121 3121 3121 3121 3120 3120 3119 3118 3118 3116 3115 3113 3112 3110 3108 3107 3105 3102 3099 3096 3094 3093 3090 3089 3087 3086 3084 3082 3080 3078 3076 3074 3072 3070
3103 3107 3110 3112 3113 3114 3114 3116 3117 3118 3117 3117 3117 3116 3116 3115 3114 3114 3113 3111 3109 3108 3105 3103 3102 3099 3096 3094 3093 3091 3089 3087 3085 3083 3081 3079 3077 3075 3073 3070 3068 3066 3064
3097 3101 3104 3105 3106 3108 3109 3111 3112 3113 3113 3112 3112 3111 3111 3111 3110 3110 3109 3107 3105 3103 3100 3098 3097 3095 3093 3091 3088 3086 3085 3083 3081 3078 3077 3074 3072 3070 3067 3064 3061 3059 3057
3091 3095 3098 3099 3100 3102 3103 3105 3106 3107 3107 3108 3107 3107 3107 3108 3107 3106 3104 3103 3100 3098 3095 3094 3092 3089 3088 3086 3084 3082 3080 3078 3075 3073 3070 3068 3065 3063 3060 3057 3054 3051 3049
3085 3089 3092 3094 3095 3096 3097 3098 3100 3101 3102 3103 3103 3103 3104 3104 3103 3102 3100 3098 3096 3094 3092 3089 3087 3085 3082 3080 3079 3077 3074 3072 3069 3066 3064 3061 3058 3055 3052 3049 3046 3043 3040
3079 3083 3086 3088 3089 3090 3091 3092 3093 3095 3096 3098 3099 3099 3100 3100 3099 3098 3096 3094 3092 3089 3086 3084 3082 3079 3077 3075 3072 3070 3068 3067 3064 3061 3058 3054 3051 3048 3045 3041 3038 3034 3030
3074 3077 3079 3082 3082 3084 3085 3086 3088 3090 3092 3095 3095 3096 3096 3096 3096 3094 3092 3090 3087 3085 3082 3079 3076 3073 3071 3067 3064 3061 3056 3053 3049 3051 3051 3048 3043 3040 3037 3033 3029 3024 3020
3069 3071 3073 3075 3076 3077 3079 3081 3084 3087 3089 3091 3092 3092 3092 3093 3092 3090 3088 3086 3083 3081 3077 3074 3071 3067 3064 3060 3057 3053 3049 3043 3038 3034 3035 3036 3032 3028 3025 3022 3017 3013 3008
3062 3065 3067 3069 3070 3072 3075 3078 3080 3083 3086 3087 3088 3089 3089 3089 3088 3086 3084 3081 3079 3075 3072 3068 3065 3061 3057 3053 3049 3046 3043 3038 3032 3024 3018 3020 3020 3018 3012 3007 3002 2996 2991
3055 3059 3062 3064 3066 3068 3071 3074 3077 3080 3082 3084 3085 3085 3086 3085 3084 3082 3079 3076 3073 3070 3066 3062 3058 3055 3051 3046 3042 3037 3032 3028 3023 3017 3008 3003 2997 2997 2995 2992 2987 2980 2974